Wind_Speed
7 7 7 6 5 4 2 1 2 3 4 4 4 3 2 2 1 1 1 1 1 1 1 1 2 1 1 1 2 4 6 9 11 13 13 12 12 13 15 15 13 8 5 4 4 5 5 5 5 5 5 5 5 5 5 5 6 7 8 9 10 10 11 11 11 10 10 10 10
6 6 6 6 5 4 4 3 1 0 1 2 2 2 1 0 1 1 1 2 2 1 1 2 1 1 1 1 2 2 4 6 7 8 8 8 9 9 10 10 7 4 3 3 3 4 4 5 5 5 5 6 6 6 6 6 6 6 7 7 8 8 8 9 8 8 8 9 10
6 6 6 5 5 4 4 4 4 4 3 4 4 4 3 3 3 3 4 4 4 3 3 3 2 2 1 1 2 3 4 5 5 6 6 7 7 7 7 6 5 4 5 5 5 5 5 5 5 5 5 6 6 6 6 5 5 5 5 6 6 6 7 7 7 7 8 9 9
6 7 7 7 6 6 5 5 5 5 5 5 5 5 5 5 5 5 6 5 5 5 5 4 5 4 3 3 3 4 5 6 6 7 7 8 8 8 7 6 6 6 6 6 5 5 4 3 3 3 3 4 4 4 4 4 4 4 5 5 5 6 6 6 6 7 7 8 9
7 7 7 7 7 6 6 5 6 6 6 6 6 6 7 7 7 7 7 6 7 7 7 7 7 7 7 6 6 6 7 7 8 8 8 9 9 9 8 8 7 7 6 5 5 4 3 2 2 2 3 3 3 3 3 3 4 4 4 4 4 4 4 5 5 5 6 7 8
9 8 8 7 7 6 6 6 6 6 6 6 7 7 8 8 7 7 8 8 8 9 9 9 9 9 9 8 8 8 8 8 8 8 8 9 9 9 9 8 7 6 5 4 4 3 2 2 3 3 3 4 4 4 4 4 3 3 2 2 3 3 4 4 5 5 6 7 8
8 8 8 8 7 6 6 6 5 5 6 7 7 8 8 8 8 8 8 8 8 8 8 8 8 7 7 7 8 8 8 8 8 7 7 7 6 6 6 5 4 3 3 2 2 2 2 2 2 3 3 4 4 4 4 3 3 2 3 3 4 4 4 5 5 6 6 7 8
7 8 8 8 7 7 6 6 5 5 6 7 7 8 8 7 7 6 6 6 6 6 5 5 5 4 4 4 5 5 5 5 5 5 5 4 4 3 2 1 2 3 3 2 2 3 3 3 4 4 4 4 3 3 4 4 4 4 4 5 5 5 6 6 6 7 7 7 8
7 8 8 8 7 7 7 6 5 5 6 7 7 7 7 6 5 5 5 5 4 3 3 3 2 2 2 2 2 2 2 2 2 3 3 2 2 2 3 3 3 3 3 4 4 4 4 4 3 3 3 3 3 3 4 5 5 5 6 6 6 6 6 6 6 6 7 7 7
7 7 7 8 8 7 7 6 6 6 6 7 7 7 6 6 5 5 5 4 3 2 1 1 1 2 3 4 4 5 5 4 4 3 3 3 2 3 4 4 4 4 4 4 3 3 2 2 2 2 2 2 3 3 4 4 4 5 5 5 5 5 5 5 5 6 6 6 7
6 6 6 7 7 7 6 6 6 6 6 6 7 7 6 6 7 6 5 4 2 2 2 1 1 2 3 5 5 6 7 7 6 5 5 5 5 4 4 4 3 3 3 2 1 1 1 1 1 1 1 2 2 2 2 2 2 3 3 3 3 3 4 4 5 5 5 6 6
5 5 5 5 5 5 5 6 6 6 6 6 6 6 6 7 7 6 5 4 4 4 3 3 3 3 4 5 6 6 6 6 6 6 5 5 5 4 4 3 2 2 1 1 1 0 1 1 0 1 1 1 1 1 1 0 1 1 1 1 2 2 3 4 4 4 5 5 5
4 4 4 4 4 3 4 4 5 5 5 5 5 6 6 6 6 5 4 4 4 4 4 4 4 4 5 6 6 6 6 6 6 6 5 4 4 3 2 1 1 0 0 0 1 1 1 1 1 1 1 1 1 1 1 1 1 1 0 0 1 1 2 3 3 4 4 4 4
3 4 4 3 3 3 3 4 4 4 4 4 5 5 5 5 5 4 4 4 4 4 4 4 4 5 5 5 5 6 6 6 5 5 4 4 3 3 2 2 2 2 2 2 2 2 2 2 2 2 2 2 1 1 1 1 1 1 1 1 0 0 1 2 2 3 4 4 4
3 3 3 3 3 3 3 3 3 4 4 4 4 5 5 5 5 5 4 4 4 4 4 4 5 5 4 4 3 4 4 4 4 4 4 3 3 3 4 4 4 4 3 3 2 2 1 1 1 1 1 2 1 1 1 1 1 1 1 1 0 1 1 2 2 2 3 3 4
3 3 3 3 3 3 3 3 3 3 4 4 4 5 5 6 5 5 5 5 5 5 5 5 5 4 4 3 3 3 3 3 3 3 3 3 2 3 3 3 3 3 2 2 1 1 1 1 1 2 2 2 2 2 2 2 1 1 1 0 1 1 1 1 1 2 2 3 3
3 3 3 3 3 3 3 3 3 4 4 4 4 5 5 6 5 5 5 5 5 5 5 5 5 4 3 3 3 4 3 3 2 1 1 1 1 1 1 1 1 1 2 2 2 3 3 3 3 3 3 3 3 3 3 2 2 2 2 1 1 1 2 1 1 2 2 2 3
3 3 4 4 4 4 4 4 4 4 4 4 5 5 5 5 5 5 5 5 5 5 4 4 4 3 3 2 3 3 3 2 1 1 0 1 1 1 1 2 2 3 3 3 3 3 4 4 4 3 3 3 3 3 3 3 3 3 3 2 2 2 2 2 2 2 3 3 3
4 4 5 5 5 5 4 4 4 4 4 4 5 5 4 4 4 4 4 4 3 3 3 3 3 2 2 2 2 2 1 1 0 1 2 2 2 2 2 3 3 4 4 4 4 4 4 4 4 3 3 3 3 3 4 4 4 4 4 4 4 4 4 4 4 4 4 4 4
5 5 6 6 6 5 4 4 4 4 4 4 5 4 4 3 3 3 3 2 2 2 1 1 1 2 1 0 0 0 0 0 1 2 3 4 4 4 4 4 4 4 4 4 4 4 4 4 4 3 3 3 4 4 4 4 4 4 4 5 5 5 5 5 5 5 5 5 4
4 4 4 4 4 4 4 4 4 3 3 4 4 4 3 2 1 1 2 2 2 2 3 3 3 3 3 2 2 2 2 2 4 5 6 6 7 7 6 6 6 6 6 6 5 5 5 5 4 4 4 4 5 5 5 5 5 5 6 6 6 6 6 6 6 5 5 5 5
3 3 3 3 3 2 2 2 2 2 2 3 3 2 2 2 2 3 4 4 4 4 4 4 4 4 3 3 3 4 5 7 8 9 9 9 10 10 9 8 8 8 8 8 7 6 6 6 5 5 5 6 6 6 6 6 7 7 7 8 8 8 7 7 6 6 6 6 5
3 3 3 3 3 3 3 3 3 3 2 2 3 3 3 4 4 5 5 5 5 5 6 6 6 6 6 6 7 9 10 11 12 13 13 12 12 12 11 11 11 11 11 10 8 7 7 7 7 7 7 8 8 8 8 8 8 9 9 9 9 9 8 8 7 7 7 6 6
3 4 4 4 4 3 3 4 4 4 4 4 5 5 5 6 6 6 7 7 7 8 8 9 9 9 10 11 12 13 14 15 15 16 15 14 14 14 13 13 13 13 12 11 10 9 9 9 10 10 9 9 9 9 9 9 9 10 10 10 10 9 9 8 7 7 7 7 7
5 6 5 4 4 4 4 4 5 6 6 6 6 7 7 8 8 9 9 10 11 11 12 12 13 13 14 15 15 16 17 17 17 16 16 15 15 15 15 15 14 14 12 11 10 9 9 10 10 9 9 9 9 9 9 10 9 9 9 9 9 9 8 7 7 6 5 5 5
7 7 6 5 5 6 6 6 7 7 7 7 8 8 9 10 10 11 12 13 14 14 14 15 15 16 16 17 17 17 18 18 17 17 16 16 15 15 14 14 13 12 11 10 9 9 9 8 8 7 7 8 8 9 9 9 9 9 9 8 8 7 7 7 6 5 4 4 3
8 8 7 7 7 7 8 8 8 8 9 9 10 10 11 12 12 13 14 14 15 15 16 16 16 16 17 17 17 17 17 16 16 16 16 15 15 14 14 13 12 11 10 9 9 8 8 7 6 6 6 7 7 8 9 9 9 8 8 7 6 6 5 5 4 4 3 2 2
9 9 8 7 8 8 8 9 9 10 10 11 12 12 13 13 13 14 14 15 15 16 16 16 16 17 17 17 16 16 15 15 15 15 15 15 15 14 13 12 11 10 9 9 9 9 8 7 6 6 6 6 7 7 8 9 9 8 7 7 6 5 4 4 4 3 2 1 1
8 8 8 9 9 9 9 10 10 11 11 12 13 13 13 13 14 14 15 15 15 15 16 16 16 16 16 16 15 15 14 15 15 15 15 15 14 14 13 12 11 10 10 9 9 9 8 7 7 6 7 7 7 8 8 8 9 8 7 7 6 5 5 4 4 3 3 2 2
7 8 9 9 10 10 10 11 11 12 12 12 13 13 13 13 14 14 15 15 15 15 15 15 15 15 15 14 14 14 14 14 15 15 15 15 14 13 13 12 12 11 10 10 9 9 8 8 7 8 8 8 8 8 9 9 9 8 7 7 6 6 6 5 5 5 4 4 4
7 8 9 10 10 11 11 11 12 12 12 12 12 13 13 13 14 14 14 14 14 14 14 14 14 14 14 13 13 13 14 14 14 14 14 14 13 13 13 12 12 11 10 10 10 9 9 8 9 9 9 9 9 9 9 9 8 8 8 8 7 7 7 7 6 6 6 5 5
7 8 9 10 11 11 12 12 12 12 12 12 12 13 13 13 13 13 13 13 13 13 13 13 13 13 13 12 13 13 13 13 13 13 13 13 13 13 12 12 11 11 10 10 10 9 9 9 9 10 10 10 9 9 9 9 9 9 8 8 8 8 7 7 6 6 6 6 6
8 9 10 10 11 11 12 12 12 12 12 12 12 12 13 12 12 12 12 12 12 12 12 12 12 12 12 12 13 13 13 13 13 13 13 13 13 13 13 12 11 10 10 10 10 9 9 9 9 10 10 9 9 8 8 8 8 8 8 8 8 7 6 6 5 5 5 5 5
9 10 10 11 11 12 12 12 12 12 13 13 12 12 12 12 12 12 12 11 11 11 11 11 11 11 11 12 12 13 13 13 13 13 13 13 13 13 13 12 11 10 10 10 9 9 9 9 9 9 9 9 9 8 8 8 8 8 8 8 8 7 6 6 5 5 5 4 4
9 10 11 12 12 12 12 13 13 13 13 13 12 12 11 11 11 11 11 10 9 9 9 9 9 10 10 10 11 12 12 13 13 13 13 13 13 13 13 13 12 11 10 10 10 9 9 9 9 9 9 9 9 9 9 10 10 10 9 9 9 9 8 8 7 7 6 5 4
10 11 12 12 12 12 12 13 13 13 12 12 12 11 11 10 10 9 8 8 8 8 8 8 8 9 9 9 10 11 12 12 12 12 12 13 13 14 14 14 13 12 11 11 11 11 11 11 11 11 10 10 10 10 10 11 11 10 10 10 10 10 10 10 9 9 8 7 6
10 11 12 12 12 12 12 12 12 12 12 12 11 10 10 9 8 7 7 6 7 7 8 8 8 8 8 9 10 10 10 10 11 12 12 12 13 14 14 14 14 12 12 11 12 12 12 12 12 11 11 11 11 10 10 10 10 10 9 9 9 9 9 9 9 9 9 8 7
9 10 11 12 12 12 12 12 12 11 11 11 10 9 8 7 6 6 6 6 7 7 8 8 8 8 9 9 10 10 10 11 12 13 13 13 13 14 14 13 13 12 11 10 10 10 11 11 10 10 9 9 9 9 9 9 9 9 8 8 8 8 8 8 8 9 9 9 8
9 10 11 11 12 12 12 11 11 10 10 9 8 7 6 6 6 6 6 7 7 8 9 9 10 10 10 11 11 12 12 12 13 13 13 13 13 13 12 12 11 10 9 8 7 7 7 8 8 8 8 8 8 8 7 7 7 7 7 7 6 6 6 7 7 8 8 8 8
8 9 10 11 11 11 11 11 11 10 9 8 7 7 7 7 7 7 7 8 8 9 10 10 11 12 12 13 13 13 13 13 13 13 13 13 13 12 11 10 10 10 9 7 6 5 5 5 5 6 6 6 6 6 6 5 6 6 6 5 5 5 5 5 6 6 7 7 7
8 9 10 11 11 11 11 11 10 10 8 8 7 8 8 9 9 9 9 10 10 10 11 12 13 14 14 14 14 14 13 13 13 12 12 12 12 11 11 10 10 9 9 8 6 6 5 5 4 4 5 5 5 4 4 3 3 4 4 4 4 4 4 4 4 5 6 6 6
Wind_Direction
41 43 44 47 48 47 39 3 288 273 268 265 259 253 259 284 294 285 265 244 234 233 226 221 218 219 224 224 217 219 224 227 229 231 235 238 238 242 246 247 245 242 236 232 226 223 219 213 207 207 217 231 242 245 246 245 240 237 238 242 246 249 251 254 255 255 255 253 253
28 31 35 40 46 50 55 59 63 171 207 209 199 190 181 125 71 73 84 103 110 125 149 164 173 169 154 167 172 182 193 204 211 215 217 215 213 218 225 230 227 223 216 207 204 205 207 207 207 215 227 241 248 250 248 247 245 244 246 249 252 254 254 254 254 253 253 254 255
21 22 26 31 36 42 49 56 67 88 113 131 143 145 138 122 105 94 90 88 94 107 118 118 121 125 141 165 173 170 170 175 180 181 180 179 183 187 189 189 186 184 180 177 183 193 203 207 214 224 235 245 251 252 252 252 255 256 255 254 252 251 250 250 250 250 252 255 258
21 22 27 33 39 46 52 58 67 82 100 115 127 128 125 119 114 108 103 98 94 91 93 94 94 100 112 128 143 148 148 150 154 154 155 155 156 157 157 159 163 165 165 165 170 177 187 199 215 233 247 256 260 260 259 259 259 255 249 246 245 243 245 249 252 256 261 265 269
26 28 32 37 45 54 63 69 75 82 93 106 116 118 116 113 112 109 106 101 94 90 90 94 94 98 104 111 120 126 131 137 143 149 150 148 147 147 150 154 158 163 166 168 172 180 190 206 234 256 265 269 268 264 259 257 252 247 244 245 250 254 259 264 270 276 280 283 285
32 34 41 48 58 69 77 81 83 84 88 95 102 105 105 105 105 103 101 98 96 95 95 97 98 100 105 111 115 118 122 126 133 141 146 148 149 152 156 160 165 171 175 180 189 200 219 241 262 274 282 289 287 279 270 263 259 260 269 281 293 301 302 298 299 299 299 298 298
40 45 53 63 73 84 92 96 96 93 91 91 92 93 95 96 99 100 101 103 102 100 97 96 96 99 103 109 112 114 117 120 124 130 135 140 147 154 160 167 183 203 218 219 228 252 273 288 299 307 310 312 308 299 293 294 305 322 338 340 340 338 333 326 324 321 316 311 308
54 60 68 78 88 98 104 109 109 104 95 89 87 86 87 91 96 101 107 110 105 99 93 88 83 81 84 92 98 103 108 113 117 118 115 112 116 123 130 163 268 281 291 318 335 335 334 335 339 342 341 340 334 328 329 338 347 356 0 360 355 351 348 344 339 333 324 316 311
68 73 81 92 101 109 114 119 117 106 95 89 85 83 83 85 90 96 99 97 98 99 94 79 62 39 20 12 17 21 31 52 67 74 77 80 80 68 53 41 32 20 4 351 349 347 347 349 355 0 4 5 4 0 360 0 1 4 5 5 1 356 353 348 341 331 321 313 308
73 82 92 101 108 116 122 124 118 108 98 92 87 83 80 78 79 78 75 74 82 99 99 70 17 335 327 329 329 327 326 326 335 347 350 342 348 10 23 23 13 1 354 352 357 359 355 355 2 16 29 33 24 16 10 9 7 6 6 4 1 355 347 339 330 323 316 312 309
74 84 94 103 110 119 124 122 116 108 101 94 88 83 78 72 69 67 63 59 58 63 60 35 348 321 316 320 325 326 324 321 323 331 344 355 2 9 13 8 356 348 346 348 357 4 12 6 30 51 63 61 48 32 25 20 10 6 3 359 355 348 340 330 325 322 320 318 316
73 83 94 103 112 121 123 117 110 104 97 91 83 78 74 71 67 64 61 56 52 49 42 24 1 345 339 338 339 338 339 341 345 353 5 16 16 12 7 356 343 328 315 310 312 321 316 325 3 70 91 91 94 91 75 39 353 345 346 345 344 345 341 334 331 329 328 326 324
72 81 90 98 109 117 115 108 101 94 88 81 73 69 66 66 65 61 56 52 46 42 32 15 3 1 5 7 7 7 9 15 20 24 29 35 32 23 11 357 353 353 342 335 315 305 297 296 286 269 253 245 201 191 196 217 230 226 231 308 342 348 346 343 342 340 339 338 339
69 74 79 84 95 101 100 95 88 80 73 67 58 52 51 53 51 46 41 37 31 27 18 7 5 15 27 31 29 27 28 31 34 35 33 31 22 13 12 14 25 27 15 355 335 324 320 324 308 288 274 261 236 216 216 229 229 222 216 209 195 27 17 7 356 351 352 354 355
68 67 67 70 77 83 83 79 71 60 52 47 39 32 28 32 33 32 30 28 22 16 12 12 22 36 48 50 46 41 37 34 30 25 22 17 3 357 357 357 359 356 351 341 333 332 339 346 321 287 259 238 220 210 210 208 208 209 201 198 140 82 57 37 12 358 358 3 4
69 65 61 58 62 63 63 59 49 38 31 27 19 12 13 20 25 31 36 37 31 27 29 35 42 51 62 70 82 79 64 44 29 22 19 8 353 341 335 336 336 331 316 296 259 197 170 170 181 186 185 182 179 172 167 162 154 144 124 91 63 59 57 47 23 13 13 16 16
69 62 55 52 52 48 43 38 30 23 16 12 5 4 10 19 27 38 46 47 43 42 47 53 58 62 68 82 96 96 87 70 52 35 21 1 338 311 288 276 262 240 223 206 186 169 158 156 160 163 163 160 153 146 139 131 117 100 84 63 49 53 63 64 60 52 48 46 42
65 57 50 47 44 39 33 28 22 14 9 6 4 7 13 20 29 43 53 53 52 54 57 59 60 64 68 76 85 83 78 69 76 109 155 163 174 168 165 161 159 160 159 157 151 144 138 138 140 143 144 142 136 129 120 113 105 97 90 84 79 80 81 84 79 73 68 65 64
59 54 51 47 42 36 31 24 17 13 10 6 5 6 12 23 29 38 49 54 54 54 57 63 62 62 63 59 57 53 42 26 72 139 137 130 130 130 134 136 138 136 136 138 139 138 132 127 121 118 119 120 116 111 108 106 108 106 103 99 96 94 91 88 85 80 77 76 79
44 43 45 46 40 31 25 21 21 18 12 5 2 4 10 20 22 27 40 57 65 69 78 83 112 124 130 145 216 291 288 258 130 117 111 109 104 102 103 111 116 116 116 116 117 117 112 108 104 100 99 99 102 105 107 108 111 109 106 102 99 98 95 92 89 88 87 88 89
34 31 33 37 34 27 22 25 30 27 15 3 0 6 14 17 21 46 69 90 103 118 128 130 135 136 140 154 165 164 149 132 112 103 99 95 90 85 85 87 91 91 88 85 84 86 88 88 89 91 92 95 98 101 102 105 105 104 103 102 101 101 100 98 97 96 97 98 96
53 52 54 60 56 46 41 48 57 43 22 14 19 25 42 90 108 108 106 105 111 116 117 112 109 108 111 118 122 120 116 109 101 95 90 86 82 79 77 76 76 75 71 67 65 69 76 80 83 85 89 93 95 96 97 98 100 102 103 104 105 105 105 104 103 103 102 100 96
79 83 92 96 95 92 95 102 103 95 80 74 86 97 105 110 108 107 108 108 109 106 100 93 86 83 88 96 105 107 106 102 96 92 88 85 82 79 76 73 71 68 65 60 57 60 70 80 85 87 90 94 96 97 97 98 100 102 104 105 106 107 108 110 111 110 108 105 101
106 111 109 105 101 102 105 110 112 112 112 113 116 116 114 111 108 106 104 101 98 94 91 89 89 91 95 100 104 106 105 102 98 94 91 86 82 79 75 72 69 67 65 62 60 62 70 79 86 90 93 97 100 101 100 100 100 102 103 105 107 109 111 113 114 116 118 118 114
121 118 115 113 116 120 124 126 126 124 122 121 120 118 114 110 107 104 101 98 96 96 96 98 99 101 103 104 105 106 104 101 97 94 89 84 78 74 70 67 65 65 65 66 64 65 69 76 83 89 94 98 101 102 101 100 99 99 100 102 105 108 111 112 112 116 124 130 126
122 122 124 127 130 131 131 130 129 127 125 122 120 116 112 109 108 106 104 102 102 103 105 106 106 105 106 107 106 105 103 100 97 94 91 87 82 78 74 71 69 68 70 71 71 70 71 75 81 85 89 91 95 99 101 100 97 95 95 96 98 101 107 112 116 121 128 134 133
124 126 128 131 130 128 127 127 127 125 123 122 119 116 113 112 111 109 108 107 107 109 109 108 106 106 107 109 107 105 104 102 101 99 97 94 90 86 83 82 81 82 82 83 82 81 80 79 80 82 83 82 87 93 98 99 95 92 90 90 90 92 97 105 115 122 129 132 133
127 129 131 131 127 124 122 122 121 120 119 118 117 116 116 115 114 113 112 112 113 112 111 109 109 110 110 109 107 106 105 103 100 97 93 89 87 86 86 87 89 89 89 88 87 85 83 80 77 78 80 80 81 86 92 95 94 91 87 85 85 84 84 87 93 101 105 104 99
132 133 132 129 125 122 120 118 116 115 115 116 117 118 119 119 118 117 116 116 116 113 112 112 114 113 112 109 107 106 105 102 98 95 92 90 89 90 91 92 91 90 88 87 86 86 83 80 76 75 76 77 77 79 84 86 88 87 86 83 82 81 80 80 81 80 75 66 58
136 134 131 126 124 122 121 119 117 116 117 119 121 123 122 121 119 118 117 116 114 113 114 116 116 113 111 110 109 108 105 102 101 99 97 96 96 96 97 96 92 88 86 86 86 86 84 80 76 74 73 74 73 75 77 80 82 84 86 86 86 86 86 85 84 82 78 74 72
138 135 130 127 125 123 123 122 121 122 123 124 125 124 122 119 117 116 116 116 116 116 117 118 116 113 112 112 112 109 106 104 104 103 102 101 98 98 97 95 90 87 85 84 85 83 81 77 74 73 75 75 76 78 81 84 88 91 93 94 94 94 95 94 93 91 88 86 84
140 138 134 129 126 125 125 125 125 126 127 127 124 121 119 117 116 116 117 118 119 119 119 118 116 115 115 114 112 109 106 105 104 105 105 104 101 99 96 92 89 86 84 83 83 82 79 76 75 76 78 80 83 87 91 96 99 101 101 101 100 99 98 98 97 95 93 92 90
144 141 137 132 129 128 128 128 128 129 129 126 122 120 119 119 119 118 119 121 123 123 122 121 119 119 117 115 111 108 107 108 109 109 107 105 102 98 95 91 89 86 84 84 84 84 82 80 80 82 85 88 90 93 98 100 101 102 101 100 98 96 93 92 90 88 88 86 85
146 144 139 135 132 131 131 130 131 131 129 126 123 122 123 124 124 125 126 129 131 131 130 129 126 123 120 117 115 115 114 115 116 114 111 108 105 102 98 94 90 88 86 86 87 88 87 86 87 89 92 93 95 97 99 100 99 99 97 95 92 88 84 79 75 72 70 68 67
149 145 141 138 136 135 134 134 134 133 131 127 126 128 131 133 133 134 135 139 141 140 137 133 128 123 121 121 121 122 122 122 121 119 117 115 111 107 101 97 93 90 88 89 89 89 88 88 89 92 93 96 96 98 99 99 97 96 93 91 87 81 75 69 64 60 55 51 47
153 149 144 142 140 139 138 137 137 135 133 131 131 133 136 140 141 142 146 150 148 142 136 131 125 122 122 124 125 127 127 127 125 123 121 119 115 109 104 99 95 91 88 88 88 87 85 86 88 90 93 94 95 96 96 95 93 91 88 83 78 72 66 61 57 53 50 46 42
158 155 150 147 145 143 143 143 142 139 137 136 138 141 144 147 149 152 156 155 147 138 131 127 123 121 122 123 125 127 127 128 126 122 120 117 113 109 105 101 98 94 89 87 86 85 84 84 86 87 89 90 91 91 89 88 85 81 77 72 68 62 57 52 48 46 44 43 41
162 160 157 154 150 149 149 149 148 145 143 143 145 148 151 154 157 159 158 151 139 130 124 121 119 117 117 118 119 120 122 123 122 120 118 115 111 107 104 103 100 97 94 89 85 84 82 80 80 81 81 82 81 80 79 77 74 71 66 62 58 53 48 43 40 38 37 39 41
165 164 162 159 156 154 154 154 154 153 152 151 151 153 155 157 159 157 150 141 132 125 122 120 118 117 116 116 117 119 120 121 121 120 118 114 110 105 102 99 98 97 96 93 89 87 83 76 72 72 72 71 70 68 68 68 69 67 62 56 51 46 40 35 31 29 29 33 39
174 170 167 163 160 158 157 156 156 157 158 158 157 156 154 153 151 148 142 135 130 125 122 120 119 118 117 118 119 120 121 122 123 121 118 114 110 106 102 99 97 95 95 94 91 92 91 85 71 66 67 67 67 65 65 66 71 71 67 59 48 40 33 28 24 22 22 24 31
186 181 174 167 165 163 161 158 156 157 159 161 159 155 151 147 147 145 140 135 130 127 124 121 120 119 119 120 121 121 122 122 122 120 118 116 113 111 109 106 102 99 95 92 89 91 95 96 79 69 67 67 67 67 63 60 68 73 70 60 48 36 27 22 17 15 14 16 21
Height
797 796 795 795 795 794 794 793 793 792 792 792 792 792 792 791 791 790 790 790 790 790 789 789 789 789 790 790 790 791 792 792 793 794 794 794 795 796 797 799 799 799 798 798 798 799 800 800 801 801 802 802 803 803 803 804 804 805 805 805 806 806 807 807 807 808 808 807 807
797 796 795 795 795 794 793 793 792 792 792 792 792 792 791 791 791 790 790 790 789 789 789 789 789 789 789 790 790 791 791 792 792 793 793 793 794 795 796 797 797 797 797 797 798 799 800 800 800 801 801 801 802 802 803 803 804 804 805 805 806 806 807 807 807 807 807 807 807
797 796 795 795 795 794 793 793 792 792 791 791 791 791 791 791 790 790 790 790 789 789 789 789 789 789 789 790 790 790 791 791 792 792 792 793 794 795 795 796 796 796 797 797 798 799 799 800 800 800 801 801 802 802 802 803 803 804 804 805 805 806 806 806 806 806 806 806 807
797 796 796 795 795 794 793 793 792 792 791 791 791 791 791 790 790 790 790 790 790 789 789 789 789 789 789 790 790 790 791 791 792 792 793 793 794 794 795 795 795 796 797 797 798 798 799 799 800 800 801 801 802 802 802 803 803 804 804 804 805 805 805 805 805 806 806 806 806
797 796 796 795 795 794 794 793 792 792 792 791 791 791 790 790 790 790 790 790 790 790 790 790 790 790 790 790 790 791 791 791 792 792 793 793 794 794 794 795 795 796 796 797 797 798 798 799 799 800 800 801 801 802 802 802 802 803 803 804 804 804 805 805 805 805 805 805 805
797 796 796 795 795 794 794 793 793 792 792 792 791 791 791 791 791 790 790 790 790 790 791 791 791 791 791 791 791 791 791 792 792 792 793 793 793 794 794 794 795 795 796 796 796 797 797 798 798 799 800 800 801 801 801 802 802 802 802 803 803 804 804 804 804 805 805 805 805
797 796 796 795 795 795 794 793 793 793 792 792 792 791 791 791 791 791 791 791 791 791 791 791 791 791 791 791 791 791 791 792 792 792 793 793 793 794 794 794 795 795 796 796 796 796 797 797 798 798 799 799 800 801 801 801 801 801 802 802 802 803 803 803 803 804 804 804 804
797 796 796 795 795 795 794 794 793 793 792 792 792 792 792 792 792 792 791 791 791 791 791 791 791 791 791 791 791 791 792 792 792 792 793 793 793 794 794 794 795 795 796 796 796 796 796 797 797 798 798 799 800 800 800 801 800 800 801 801 801 802 802 802 803 803 803 803 803
797 797 796 795 795 795 794 794 793 793 793 793 792 792 792 792 792 792 792 792 792 792 792 792 792 792 792 792 792 792 792 792 792 792 793 793 793 793 794 794 795 795 795 795 795 796 796 797 797 798 798 799 799 800 800 800 800 800 800 800 801 801 801 802 802 802 802 803 803
797 797 796 796 795 795 794 794 794 793 793 793 793 793 793 793 793 792 792 793 793 793 792 792 792 792 792 792 792 792 792 792 792 793 793 793 793 794 794 794 795 795 795 795 795 796 796 796 797 797 798 798 799 799 799 799 800 800 800 800 800 801 801 801 801 802 802 802 802
797 797 796 796 795 795 795 794 794 793 793 793 793 793 793 793 793 793 793 793 793 793 793 793 793 793 793 793 793 793 793 793 793 793 793 793 794 794 794 795 795 795 795 795 795 795 796 796 796 797 797 798 798 799 799 799 799 800 800 800 800 800 800 800 801 801 801 801 801
797 797 796 796 796 795 795 794 794 794 794 794 794 794 793 793 793 794 794 793 793 793 793 793 793 793 793 793 794 794 794 793 793 794 794 794 794 794 795 795 795 795 795 795 795 795 795 796 796 797 797 797 798 798 798 799 799 799 799 799 799 799 800 800 800 800 800 800 801
797 797 796 796 796 795 795 795 794 794 794 794 794 794 794 794 794 794 794 794 793 793 793 793 794 794 794 794 794 794 794 794 794 794 794 795 795 795 795 795 795 795 795 795 795 795 796 796 796 797 797 797 797 798 798 798 798 798 798 798 799 799 799 799 799 800 800 800 800
797 797 796 796 796 795 795 795 795 795 794 794 794 794 794 794 794 794 794 794 794 794 794 794 794 794 794 794 794 794 794 794 795 795 795 795 795 795 795 795 795 795 795 795 796 796 796 796 796 797 797 797 797 797 797 797 797 797 798 798 798 798 798 799 799 799 800 800 800
797 797 796 796 796 795 795 795 795 795 795 795 795 795 795 795 795 794 794 794 794 794 794 794 794 794 794 794 794 795 795 795 795 795 795 795 795 796 796 796 795 795 795 796 796 796 796 796 796 796 796 796 796 797 797 797 797 797 797 797 797 798 798 798 799 799 800 800 800
797 797 796 796 796 795 795 795 795 795 795 795 795 795 795 795 795 795 794 794 794 794 794 794 794 794 794 795 795 795 795 795 795 795 795 795 795 795 795 795 795 795 795 796 796 796 795 795 795 796 796 796 796 796 796 796 797 797 797 797 797 798 798 798 799 799 800 800 800
797 797 796 796 796 796 795 795 795 795 795 795 795 795 795 795 795 795 795 795 794 794 794 794 795 795 795 795 795 795 795 795 795 795 795 795 795 795 795 795 795 795 795 795 795 795 795 795 795 795 796 796 796 796 796 796 797 797 797 797 797 798 798 798 799 799 800 800 800
797 797 796 796 796 796 796 796 795 795 795 795 795 795 795 795 795 795 795 795 795 795 795 795 795 795 795 795 795 795 795 795 795 795 795 795 795 795 795 795 795 795 795 796 796 795 795 795 795 796 796 796 796 796 796 797 797 797 797 797 798 798 798 799 799 800 800 800 800
797 797 797 796 796 796 796 796 796 796 796 796 796 795 795 795 795 795 795 795 795 795 795 795 795 795 796 796 796 796 796 795 795 795 795 795 795 795 795 796 796 796 796 796 796 796 796 796 796 796 796 796 796 797 797 797 797 797 797 798 798 798 799 799 800 800 800 801 801
797 797 797 797 797 797 797 796 796 796 796 796 796 796 796 796 795 795 795 795 795 795 795 796 796 796 796 796 796 796 796 796 796 796 796 796 796 796 796 796 796 796 796 796 797 797 797 797 797 797 797 797 797 797 797 797 797 798 798 798 798 799 799 800 800 800 801 801 801
798 798 798 797 797 797 797 797 797 797 797 796 796 796 796 796 796 796 796 796 796 796 796 796 796 796 796 796 796 796 796 797 797 797 796 796 796 797 797 797 797 797 797 797 798 798 798 798 798 798 797 797 797 797 798 798 798 798 798 798 799 799 799 800 800 801 801 802 802
798 798 798 798 798 797 797 797 797 797 797 797 797 797 797 797 796 796 796 796 796 796 796 796 796 796 797 797 797 797 797 797 797 797 797 797 797 797 797 798 798 798 798 798 799 799 798 798 798 798 798 798 798 798 798 798 799 799 799 799 799 799 800 800 801 801 802 802 803
798 798 798 798 798 798 798 797 797 797 797 797 797 797 797 797 797 797 797 797 797 797 797 797 797 797 797 797 798 798 798 798 798 798 798 798 798 798 799 799 799 799 799 799 800 799 799 799 799 799 799 799 799 799 799 799 799 799 799 799 800 800 800 801 802 802 802 803 803
799 799 799 798 798 798 798 798 798 798 798 798 798 798 798 797 797 797 797 797 797 797 798 798 798 798 798 799 799 799 799 799 799 799 799 799 799 799 800 800 800 800 800 800 800 800 800 800 800 800 800 800 800 800 800 800 800 800 800 800 800 801 801 802 802 803 803 804 804
799 799 799 799 799 799 799 799 798 798 798 798 798 798 798 798 798 798 798 798 798 798 799 799 799 799 800 800 800 800 800 800 800 800 800 800 800 800 800 800 801 801 801 801 801 801 801 801 801 801 801 801 800 800 800 800 801 801 801 801 802 802 803 803 804 804 804 805 805
800 799 799 799 799 799 799 799 799 799 799 799 799 799 799 799 799 799 799 799 799 799 800 800 800 800 800 801 801 801 800 800 800 800 801 801 801 801 802 802 802 803 803 803 803 803 803 802 802 802 802 802 801 801 801 801 802 802 802 802 803 803 804 804 805 805 805 805 805
800 800 800 800 800 800 800 800 800 800 800 800 800 800 800 800 800 800 800 800 800 800 800 800 801 801 801 801 801 801 801 801 801 801 802 802 802 803 803 804 804 805 805 805 805 805 804 804 803 803 803 803 802 802 802 802 803 803 803 804 804 804 805 805 805 806 806 806 806
800 800 800 800 800 800 800 800 800 800 800 800 800 800 800 801 801 801 801 801 801 801 801 801 802 802 802 802 802 802 802 802 803 803 803 803 803 804 805 805 806 806 806 806 806 805 805 805 804 804 804 804 803 803 803 803 804 804 804 805 805 805 806 806 806 807 807 807 807
800 800 800 800 800 800 800 800 800 801 801 801 801 801 801 801 801 801 801 801 801 802 802 802 802 802 802 803 803 803 803 803 804 804 804 804 805 806 806 807 807 807 807 807 806 806 806 805 805 805 805 805 804 804 804 804 805 805 805 806 806 806 807 807 807 807 807 807 807
800 800 800 800 800 800 801 801 801 801 801 801 801 801 802 802 802 802 802 802 802 803 803 803 803 803 803 804 804 804 804 804 804 805 805 806 807 807 808 808 808 808 808 808 807 807 807 806 806 805 805 805 805 805 805 805 805 806 806 807 807 807 807 808 808 808 808 808 808
800 800 800 800 800 801 801 801 801 801 802 802 802 802 802 802 803 803 803 803 803 804 804 804 804 804 804 805 805 805 805 805 805 806 807 807 808 808 808 808 808 808 808 808 808 808 807 807 806 806 806 806 806 806 806 806 806 807 807 807 807 808 808 808 808 808 808 808 808
800 800 800 800 801 801 801 801 802 802 802 802 802 803 803 803 804 804 804 804 805 805 805 805 805 805 805 805 805 805 806 806 807 808 808 809 809 809 809 809 809 809 809 809 809 808 808 808 807 807 807 807 807 807 807 807 807 807 807 808 808 808 808 809 809 809 808 808 808
801 801 801 801 801 801 802 802 802 802 802 803 803 804 804 804 805 805 805 805 805 805 806 806 806 806 806 806 806 806 807 808 809 809 809 810 810 810 810 810 810 810 810 810 810 809 809 808 808 808 808 808 807 807 807 808 808 808 808 808 809 809 809 809 809 809 809 809 808
801 801 801 801 801 802 802 802 802 803 803 803 804 804 805 805 805 805 805 806 806 806 806 806 806 806 806 807 807 808 808 809 810 810 810 810 810 810 810 810 810 811 810 810 810 810 809 809 809 808 808 808 808 808 808 808 808 809 809 809 809 809 810 810 809 809 809 809 809
801 801 801 801 802 802 802 802 803 803 803 804 804 805 805 805 806 806 806 806 807 807 807 807 807 807 807 808 808 809 809 810 810 810 810 810 810 811 811 811 811 811 811 811 810 810 810 810 809 809 809 809 809 809 809 809 809 809 809 810 810 810 810 810 810 809 809 809 809
801 801 801 802 802 802 802 803 803 803 804 804 805 805 805 806 806 807 807 807 807 807 807 808 808 808 809 809 809 810 810 810 810 811 811 811 811 811 811 811 812 812 812 811 811 811 810 810 810 810 810 810 810 810 810 810 810 810 810 810 810 810 810 810 810 810 809 809 809
802 802 802 802 802 802 803 803 803 804 804 805 805 805 806 806 807 807 807 808 808 808 808 808 809 809 810 810 810 810 810 811 811 811 812 812 812 812 812 812 812 812 812 812 812 811 811 811 811 811 811 810 810 810 810 810 810 810 810 810 810 810 810 810 810 810 810 809 809
802 802 802 802 802 803 803 803 804 804 805 805 805 806 806 807 807 808 808 808 808 809 809 809 810 810 810 810 811 811 811 812 812 812 812 813 813 813 812 812 812 812 813 813 812 812 812 812 812 811 811 811 811 811 811 811 811 811 811 811 811 811 811 810 810 810 810 810 810
802 802 802 803 803 803 803 804 804 805 805 805 806 806 807 807 808 808 808 809 809 809 810 810 810 810 811 811 811 812 812 812 813 813 813 813 813 813 813 813 813 813 813 813 813 813 812 812 812 812 812 811 811 811 811 811 811 811 811 811 811 811 811 811 810 810 810 810 810
803 803 803 803 803 803 804 804 805 805 805 806 806 807 807 808 808 809 809 809 810 810 810 810 810 811 811 812 812 812 813 813 813 813 814 814 814 814 814 814 813 813 813 814 814 813 813 813 812 812 812 812 812 812 812 811 811 811 811 811 811 811 811 811 811 810 810 810 810
803 803 803 803 804 804 804 805 805 805 806 807 807 807 808 808 809 809 809 810 810 810 810 811 811 811 812 812 813 813 813 814 814 814 814 814 814 814 814 814 814 814 814 814 814 814 813 813 813 812 812 812 812 812 812 812 812 812 812 812 811 811 811 811 811 810 810 810 810